Mukilteo, WA

5:11 PM PST on February 22, 2017 (GMT -0800)
Snohomish County

Weather History for KPAE - September, 2013

Change the Weather History Date:

Saturday, September 7, 2013

  Actual Average Record
Temperature  
Mean Temperature 64 °F -  
Max Temperature 70 °F 69 °F 89 °F (1986)
Min Temperature 59 °F 50 °F 39 °F (1950)
Growing Degree Days 14 (Base 50)    
Moisture  
Dew Point 58 °F    
Average Humidity 82    
Maximum Humidity 93    
Minimum Humidity 65    
Precipitation  
Precipitation 0.23 in - - ()
Sea Level Pressure  
Sea Level Pressure 30.09 in    
Wind  
Wind Speed 4 mph (NW)    
Max Wind Speed 8 mph    
Max Gust Speed -    
Visibility 10 miles    
Events      
Averages and records for this station are not official NWS values.
T = Trace of Precipitation, MM = Missing Value Source: NWS Daily Summary

Daily Weather History Graph

Daily Weather History Graph

Search for Another Location

Airport or City:

Trip Planner

Search our weather history database for the weather conditions in past years. The results will help you decide how hot, cold, wet, or windy it might be!

Date:

Astronomy

Sep. 07, 2013 Rise Set
Actual Time 6:35 AM PDT 7:37 PM PDT
Civil Twilight 6:04 AM PDT 8:08 PM PDT
Nautical Twilight 5:26 AM PDT 8:46 PM PDT
Astronomical Twilight 4:45 AM PDT 9:26 PM PDT
Moon 9:10 AM PDT (9/7) 8:22 PM PDT (9/7)
Length of Visible Light 14h 04m
Length of Day
13h 01m
Waxing Crescent, 6% of the Moon is Illuminated
Sep 7
Waxing Crescent
Sep 12
First Quarter
Sep 19
Full
Sep 26
Last Quarter
Oct 4
New

Hourly Weather History & Observations

Time (PDT) Temp. Dew Point Humidity Pressure Visibility Wind Dir Wind Speed Gust Speed Precip Events Conditions
12:53 AM 63.0 °F 57.9 °F 84% 30.12 in 10.0 mi SSE 5.8 mph - 0.01 in   Overcast
1:53 AM 62.1 °F 59.0 °F 90% 30.12 in 10.0 mi SSE 8.1 mph - 0.01 in   Overcast
2:53 AM 62.1 °F 57.9 °F 86% 30.11 in 10.0 mi SSE 8.1 mph - 0.02 in   Overcast
3:53 AM 62.1 °F 57.9 °F 86% 30.11 in 10.0 mi SE 5.8 mph - 0.01 in   Overcast
4:53 AM 62.1 °F 57.9 °F 86% 30.10 in 10.0 mi SSE 4.6 mph - 0.01 in   Overcast
5:53 AM 62.1 °F 57.9 °F 86% 30.10 in 10.0 mi Calm Calm - 0.01 in   Overcast
6:53 AM 62.1 °F 59.0 °F 90% 30.10 in 10.0 mi Calm Calm - 0.01 in   Overcast
7:53 AM 61.0 °F 57.9 °F 90% 30.10 in 10.0 mi Calm Calm - 0.01 in   Overcast
8:00 AM 60.8 °F 57.2 °F 88% 30.11 in 10.0 mi Calm Calm - N/A   Overcast
8:48 AM 60.8 °F 57.2 °F 88% 30.10 in 10.0 mi West 3.5 mph - 0.01 in   Overcast
8:53 AM 60.1 °F 57.9 °F 93% 30.09 in 10.0 mi Calm Calm - 0.01 in   Overcast
9:13 AM 60.8 °F 57.2 °F 88% 30.10 in 10.0 mi Calm Calm - N/A   Overcast
9:53 AM 61.0 °F 57.9 °F 90% 30.11 in 9.0 mi Calm Calm - 0.01 in   Overcast
10:53 AM 61.0 °F 57.9 °F 90% 30.11 in 9.0 mi North 3.5 mph - 0.01 in   Overcast
11:41 AM 64.4 °F 57.2 °F 77% 30.10 in 10.0 mi North 3.5 mph - N/A   Mostly Cloudy
11:53 AM 64.9 °F 57.0 °F 75% 30.09 in 10.0 mi Calm Calm - 0.01 in   Mostly Cloudy
11:58 AM 64.4 °F 57.2 °F 77% 30.09 in 10.0 mi Variable 3.5 mph - N/A   Mostly Cloudy
12:07 PM 64.4 °F 57.2 °F 77% 30.09 in 10.0 mi Calm Calm - N/A   Mostly Cloudy
12:45 PM 66.2 °F 59.0 °F 78% 30.09 in 10.0 mi WNW 5.8 mph - N/A   Mostly Cloudy
12:53 PM 64.9 °F 57.9 °F 78% 30.08 in 10.0 mi WNW 4.6 mph - 0.01 in   Mostly Cloudy
1:04 PM 66.2 °F 57.2 °F 73% 30.09 in 10.0 mi WNW 4.6 mph - N/A   Scattered Clouds
1:11 PM 66.2 °F 57.2 °F 73% 30.09 in 10.0 mi WNW 5.8 mph - N/A   Scattered Clouds
1:53 PM 66.9 °F 57.9 °F 73% 30.08 in 10.0 mi West 6.9 mph - 0.01 in   Scattered Clouds
2:53 PM 68.0 °F 57.9 °F 70% 30.07 in 10.0 mi WNW 6.9 mph - 0.01 in   Clear
3:53 PM 68.0 °F 57.9 °F 70% 30.07 in 10.0 mi West 5.8 mph - N/A   Partly Cloudy
4:53 PM 69.1 °F 57.0 °F 65% 30.06 in 10.0 mi North 4.6 mph - 0.01 in   Clear
5:53 PM 68.0 °F 57.0 °F 68% 30.05 in 10.0 mi Variable 4.6 mph - 0.01 in   Clear
6:53 PM 66.9 °F 55.9 °F 68% 30.05 in 10.0 mi Calm Calm - 0.01 in   Clear
7:53 PM 64.0 °F 57.0 °F 78% 30.06 in 10.0 mi Calm Calm - 0.01 in   Clear
8:53 PM 62.1 °F 57.0 °F 84% 30.06 in 10.0 mi NNW 3.5 mph - 0.01 in   Clear
9:53 PM 61.0 °F 57.0 °F 87% 30.07 in 10.0 mi Calm Calm - N/A   Clear
10:53 PM 61.0 °F 57.0 °F 87% 30.08 in 10.0 mi Calm Calm - 0.01 in   Clear
11:11 PM 60.8 °F 57.2 °F 88% 30.08 in 9.0 mi North 4.6 mph - N/A   Scattered Clouds
11:53 PM 59.0 °F 57.0 °F 93% 30.08 in 7.0 mi North 3.5 mph - 0.01 in   Clear